Tracking 17842 objects as of 29-August-2016
HD Live streaming from Space Station
objects crossing your sky now

PSLV DEB

Track PSLV DEB now!
10-day predictions


NORAD ID: 27114
Int'l Code: 2001-049BJ
Perigee: 400.4 km
Apogee: 411.9 km
Inclination: 97.8 °
Period: 92.5 minutes
Semi major axis: 6777 km
RCS: 0.0473 m2 (small)
Launch date: October 22, 2001
Source: India (IND)
Launch site: SIRHARIKOTA (SRI)

Note: This is SATELLITE DEBRIS
Your satellite tracking list
Your tracking list is empty





NASA's NSSDC Master Catalog

Two Line Element Set (TLE):
1 27114U 01049BJ  16241.80536085  .00030375  00000-0  43542-3 0  9997
2 27114  97.8332 255.2211 0008472 175.1297 185.0040 15.56079082800144
Source of the keplerian elements: AFSPC

N2YO: 487